Tracking 33203 objects as of 15-Feb-2026
HD Live streaming from Space Station
objects crossing your sky now

EKRAN 10

Track EKRAN 10 now!
EKRAN 10 is classified as:


NORAD ID: 13878
Int'l Code: 1983-016A
Perigee: 37,183.9 km
Apogee: 37,476.4 km
Inclination: 10.7 °
Period: 1,515.3 minutes
Semi major axis: 43701 km
RCS: 6.5767 m2 (large)
Launch date: March 12, 1983
Source: Commonwealth of Independent States (former USSR) (CIS)
Launch site: TYURATAM MISSILE AND SPACE COMPLEX (TTMTR)
Your satellite tracking list
Your tracking list is empty




NASA's NSSDC Master Catalog

Two Line Element Set (TLE):
1 13878U 83016A   26046.10266638 -.00000097  00000-0  00000-0 0  9992
2 13878  10.6573 311.2622 0033459  21.2826 159.7190  0.95030585118011
Source of the keplerian elements: AFSPC